Location: Beaver Brook Trail
(44.0290°N, 71.8137°W)
Time: 04:33:18
(UTC+00:00)

Envisat - Visible Passes

Search period start: 07 October 2024 00:00
Search period end: 17 October 2024 00:00
Orbit: 762 x 764 km, 98.3° (Epoch: 06 October)

Date Brightness Start Highest point End Pass type
(mag) Time Alt. Az. Time Alt. Az. Time Alt. Az.
07 Oct 5.4 06:58:48 10° NE 07:00:48 18° ENE 07:00:48 18° ENE visible
07 Oct 3.6 08:37:09 10° N 08:40:57 39° NW 08:40:57 39° NW visible
08 Oct 3.9 07:59:29 10° NNE 08:02:54 43° NNE 08:02:54 43° NNE visible
08 Oct 4.7 09:40:17 10° NNW 09:42:51 14° WNW 09:43:02 14° WNW visible
09 Oct 4.9 07:22:17 10° NNE 07:24:50 26° NE 07:24:50 26° NE visible
09 Oct 4.1 09:01:32 10° N 09:04:59 27° NW 09:04:59 27° NW visible
10 Oct 5.8 06:45:50 10° NE 06:46:47 13° ENE 06:46:47 13° ENE visible
10 Oct 3.8 08:23:34 10° N 08:26:55 39° NNW 08:26:55 39° NNW visible
11 Oct 4.4 07:46:03 10° NNE 07:48:52 33° NNE 07:48:52 33° NNE visible
11 Oct 4.5 09:26:12 10° NNW 09:29:01 18° NW 09:29:01 18° NW visible
12 Oct 5.4 07:09:02 10° NE 07:10:48 19° NE 07:10:48 19° NE visible
12 Oct 4.1 08:47:49 10° N 08:50:57 30° NNW 08:50:57 30° NNW visible
13 Oct 4.2 08:10:01 10° N 08:12:53 34° N 08:12:53 34° N visible
13 Oct 4.9 09:51:40 10° NW 09:53:01 11° NW 09:53:01 11° NW visible
14 Oct 5.0 07:32:39 10° NNE 07:34:49 24° NE 07:34:49 24° NE visible
14 Oct 4.4 09:12:17 10° NNW 09:14:57 21° NW 09:14:57 21° NW visible
15 Oct 5.8 06:55:54 10° NE 06:56:45 13° NE 06:56:45 13° NE visible
15 Oct 4.2 08:34:09 10° N 08:36:53 30° NNW 08:36:53 30° NNW visible
16 Oct 4.6 07:56:30 10° NNE 07:58:49 28° NNE 07:58:49 28° NNE visible
16 Oct 4.8 09:37:09 10° NNW 09:38:57 14° NW 09:38:57 14° NW visible
